Regional Weather Roundup
Issued by NWS Northern Indiana

Home | Current Version | Previous Version | Graphics & Text | Print | Product List | Glossary On
Versions: 1 2 3 4 5 6 7 8 9 10 11 12 13 14 15 16 17 18 19 20 21 22 23 24 25 26 27 28 29 30 31 32 33 34 35 36 37 38 39 40 41 42 43 44 45 46 47 48 49 50
000
ASUS43 KIWX 292200
RWRIWX

KIWX WEATHER ROUNDUP
NATIONAL WEATHER SERVICE NORTHERN INDIANA
600 PM EDT THU SEP 29 2016

NOTE: "FAIR" INDICATES FEW OR NO CLOUDS BELOW 12,000 FEET WITH NO
SIGNIFICANT WEATHER AND/OR OBSTRUCTIONS TO VISIBILITY.

* THESE STATIONS ARE NOT UNDER NWS QUALITY CONTROL. THEY ALSO MAY NOT
  REPORT WEATHER SUCH AS PRECIPITATION OR FOG.

INZ001>027-292300-
NORTHERN INDIANA

CITY           SKY/WX    TMP DP  RH WIND       PRES   REMARKS
GARY*          PTSUNNY   66  59  77 NE17G31   30.17R
SOUTH BEND     CLOUDY    65  57  75 NE10G20   30.16R
ELKHART*       CLOUDY   N/A N/A N/A NE12      30.15R
GOSHEN         CLOUDY    66  56  70 NE10      30.15R
ANGOLA*          N/A     64  55  72 NE14      30.15S
FORT WAYNE     CLOUDY    65  53  65 NE14      30.13R
PERU/GRISSOM   SUNNY     68  52  56 NE8       30.10R

$$
INZ028>050-292300-
CENTRAL INDIANA

CITY           SKY/WX    TMP DP  RH WIND       PRES   REMARKS
LAFAYETTE      PTSUNNY   66  53  63 E9        30.10R
KOKOMO*        SUNNY     68  52  56 NE9       30.11S
MUNCIE*        PTSUNNY   67  52  58 E8        30.09R
INDIANAPOLIS   PTSUNNY   65  50  58 NE8       30.08S

$$
MIZ043>046-050>051-056>058-064>065-071>073-077>080-292300-
SOUTHWEST LOWER MICHIGAN

CITY           SKY/WX    TMP DP  RH WIND       PRES   REMARKS
BATTLE CREEK   LGT RAIN  60  58  92 NE12G21   30.21R FOG
BENTON HARBOR  CLOUDY    63  57  81 NE12G23   30.19R
COLDWATER*     LGT RAIN  62  60  92 NE13G18   30.17S
HILLSDALE*     LGT RAIN  61  57  88 NE7       30.16S
HOLLAND        LGT RAIN  62  56  80 E10       30.23S
GRAND RAPIDS   LGT RAIN  60  55  83 NE16      30.25R
KALAMAZOO      LGT RAIN  62  56  80 NE9G16    30.21R
STURGIS*       CLOUDY    63  58  82 NE12G18   30.16S
THREE RIVERS*  CLOUDY    64  58  83 NE8       30.19R

$$
OHZ001>008-015>018-024>025-292300-
NORTHWEST OHIO

CITY           SKY/WX    TMP DP  RH WIND       PRES   REMARKS
DEFIANCE       RAIN      64  58  80 NE9       30.13R
FINDLAY        LGT RAIN  61  57  87 NE5       30.10R
TOLEDO EXPRESS HVY RAIN  60  60 100 N14G23    30.11F FOG
TOLEDO METCALF LGT RAIN  64  62  93 NE9       30.12S
LIMA           CLOUDY    62  57  83 NE10      30.10S

$$
AND FOR LAKE MICHIGAN COASTAL AND OPEN LAKE BUOY OBSERVATIONS

STATION/POSITION TEMP    WIND        PRES    VSBY  WAVE
                 AIR SEA DIR/SP/G                  HT/PER
                 (F)     (DEG/KT/KT) (MB)    (MI)  (FT/S)
CALUMET HARBOR    65      20/ 16/ 24 1021.3R
MICHIGAN CITY     63      10/ 26/ 30   N/A
BURNS HARBOR      65      40/ 27/ 31 1020.7S
SAINT JOSEPH      64      30/  7/ 21 1022.7R
SOUTH LAKE BUOY   64 69   60/ 23/ 27 1022.5          7/ 7
4 MI NW BRIDGMAN  62 63   30/ 19/ 25 1021.8R         6/ 6
MICHIGAN CITY     64 65   40/ 21/ 29   N/A           8/ 7

$$
&&




USA.gov is the U.S. government's official web portal to all federal, state and local government web resources and services.